Saint Paul, MN

3:38 PM CDT on July 23, 2016 (GMT -0500)
Saint Paul Downtown-Holman

Weather History for KSTP - September, 2013

Change the Weather History Date:

Monday, September 9, 2013

  Actual Average Record
Temperature  
Mean Temperature 81 °F -  
Max Temperature 93 °F 75 °F 93 °F (2013)
Min Temperature 69 °F 54 °F 46 °F (2008)
Cooling Degree Days 16    
Growing Degree Days 31 (Base 50)    
Moisture  
Dew Point 68 °F    
Average Humidity 73    
Maximum Humidity 90    
Minimum Humidity 44    
Precipitation  
Precipitation 0.00 in - - ()
Sea Level Pressure  
Sea Level Pressure 29.74 in    
Wind  
Wind Speed 9 mph (SSE)    
Max Wind Speed 14 mph    
Max Gust Speed 18 mph    
Visibility 7 miles    
Events      
Averages and records for this station are not official NWS values.
T = Trace of Precipitation, MM = Missing Value Source: NWS Daily Summary

Daily Weather History Graph

Daily Weather History Graph

Search for Another Location

Airport or City:

Trip Planner

Search our weather history database for the weather conditions in past years. The results will help you decide how hot, cold, wet, or windy it might be!

Date:

Astronomy

Sep. 09, 2013 Rise Set
Actual Time 6:44 AM CDT 7:33 PM CDT
Civil Twilight 6:14 AM CDT 8:03 PM CDT
Nautical Twilight 5:38 AM CDT 8:38 PM CDT
Astronomical Twilight 5:01 AM CDT 9:15 PM CDT
Moon 11:19 AM CDT (9/9) 9:36 PM CDT (9/9)
Length of Visible Light 13h 49m
Length of Day
12h 49m
Waxing Crescent, 19% of the Moon is Illuminated
Sep 9
Waxing Crescent
Sep 12
First Quarter
Sep 19
Full
Sep 26
Last Quarter
Oct 4
New

Hourly Weather History & Observations

Time (CDT) Temp. Heat Index Dew Point Humidity Pressure Visibility Wind Dir Wind Speed Gust Speed Precip Events Conditions
12:53 AM 71.1 °F - 64.0 °F 78% 29.88 in 10.0 mi SSE 10.4 mph - N/A   Overcast
1:53 AM 70.0 °F - 64.0 °F 81% 29.87 in 10.0 mi SE 8.1 mph - N/A   Overcast
2:53 AM 70.0 °F - 64.0 °F 81% 29.84 in 10.0 mi ESE 8.1 mph - N/A   Overcast
3:07 AM 69.8 °F - 64.4 °F 83% 29.86 in 10.0 mi ESE 6.9 mph - N/A   Overcast
3:24 AM 69.8 °F - 64.4 °F 83% 29.85 in 10.0 mi ESE 8.1 mph - N/A   Overcast
3:53 AM 70.0 °F - 64.0 °F 81% 29.83 in 10.0 mi SE 8.1 mph - N/A   Overcast
4:53 AM 70.0 °F - 64.9 °F 84% 29.81 in 10.0 mi SE 10.4 mph - N/A   Overcast
5:53 AM 70.0 °F - 64.9 °F 84% 29.81 in 9.0 mi SSE 4.6 mph - N/A   Overcast
6:53 AM 71.1 °F - 66.0 °F 84% 29.81 in 6.0 mi SE 9.2 mph - N/A   Haze
7:53 AM 70.0 °F - 66.9 °F 90% 29.78 in 4.0 mi SE 9.2 mph - 0.00 in   Overcast
8:15 AM 69.8 °F - 66.2 °F 88% 29.77 in 4.0 mi SE 8.1 mph - N/A   Overcast
8:53 AM 71.1 °F - 66.9 °F 87% 29.74 in 4.0 mi SE 12.7 mph - N/A   Overcast
9:53 AM 71.1 °F - 68.0 °F 90% 29.75 in 2.5 mi SE 9.2 mph - N/A   Overcast
10:53 AM 73.0 °F - 68.0 °F 84% 29.74 in 2.5 mi SE 9.2 mph - N/A   Haze
11:24 AM 73.4 °F - 69.8 °F 88% 29.74 in 2.5 mi ESE 9.2 mph - N/A   Haze
11:53 AM 75.0 °F - 69.1 °F 82% 29.72 in 2.5 mi SE 10.4 mph - N/A   Haze
11:56 AM 75.2 °F - 69.8 °F 83% 29.73 in 4.0 mi ESE 9.2 mph - N/A   Haze
11:57 AM 75.2 °F - 69.8 °F 83% 29.73 in 3.0 mi SE 9.2 mph - N/A   Haze
12:42 PM 80.6 °F 83.9 °F 69.8 °F 70% 29.70 in 6.0 mi SE 13.8 mph - N/A   Haze
12:51 PM 82.4 °F 86.3 °F 69.8 °F 66% 29.70 in 6.0 mi SSE 12.7 mph - N/A   Haze
12:53 PM 82.0 °F 85.9 °F 70.0 °F 67% 29.68 in 6.0 mi SE 11.5 mph - N/A   Haze
1:53 PM 86.0 °F 91.5 °F 71.1 °F 61% 29.65 in 8.0 mi SSE 9.2 mph - N/A   Clear
2:53 PM 90.0 °F 96.4 °F 71.1 °F 54% 29.62 in 10.0 mi SSW 11.5 mph - N/A   Clear
3:53 PM 91.9 °F 97.4 °F 70.0 °F 48% 29.61 in 10.0 mi SSW 11.5 mph 18.4 mph N/A   Clear
4:53 PM 93.0 °F 97.9 °F 69.1 °F 45% 29.61 in 10.0 mi South 12.7 mph 18.4 mph N/A   Clear
5:53 PM 93.0 °F 97.4 °F 68.0 °F 44% 29.62 in 10.0 mi SSW 11.5 mph - N/A   Clear
6:53 PM 90.0 °F 93.6 °F 68.0 °F 48% 29.62 in 10.0 mi SW 10.4 mph - N/A   Clear
7:53 PM 88.0 °F 90.7 °F 66.9 °F 49% 29.64 in 10.0 mi WSW 10.4 mph - N/A   Clear
8:53 PM 88.0 °F 90.7 °F 66.9 °F 49% 29.67 in 10.0 mi WSW 8.1 mph - N/A   Mostly Cloudy
9:53 PM 84.9 °F 87.6 °F 66.9 °F 55% 29.70 in 10.0 mi West 9.2 mph - N/A   Clear
10:53 PM 79.0 °F - 72.0 °F 79% 29.73 in 7.0 mi NNW 3.5 mph - N/A   Clear
11:53 PM 75.9 °F - 72.0 °F 87% 29.74 in 6.0 mi Calm Calm - N/A   Clear